| time (UTC) | temp F | wind direction | speed knots | gust knots | rain 1hr in | rain 24hr in | rain mn in | humidity % | barometer mb |
| 20260502211524 | 48 | 30 | 0.0 | 0.9 | 0.00 | 0.02 | 0.02 | 68 | 1047.0 |
| 20260502210019 | 49 | 46 | 0.0 | 1.7 | 0.00 | 0.02 | 0.02 | 69 | 1047.1 |
| 20260502204519 | 49 | 212 | 0.0 | 0.9 | 0.00 | 0.03 | 0.02 | 68 | 1047.2 |
| 20260502203018 | 48 | 198 | 0.0 | 0.9 | 0.00 | 0.03 | 0.02 | 73 | 1047.2 |
| 20260502201532 | 46 | 243 | 0.0 | 1.7 | 0.00 | 0.03 | 0.02 | 75 | 1047.5 |
| 20260502200016 | 45 | 150 | 0.9 | 2.6 | 0.00 | 0.03 | 0.02 | 76 | 1047.4 |
| 20260502194515 | 45 | 226 | 0.0 | 3.5 | 0.00 | 0.04 | 0.02 | 75 | 1047.5 |
| 20260502193015 | 46 | 185 | 0.0 | 2.6 | 0.02 | 0.04 | 0.02 | 75 | 1047.5 |
| 20260502191514 | 46 | 232 | 0.0 | 2.6 | 0.02 | 0.04 | 0.02 | 77 | 1047.4 |
| 20260502190011 | 47 | 212 | 0.0 | 1.7 | 0.02 | 0.04 | 0.02 | 77 | 1047.6 |
| 20260502184513 | 47 | 222 | 0.0 | 0.0 | 0.02 | 0.09 | 0.02 | 77 | 1047.7 |
| 20260502183011 | 49 | 222 | 0.0 | 0.9 | 0.00 | 0.07 | 0.00 | 70 | 1047.9 |
| 20260502181510 | 49 | 220 | 0.0 | 0.9 | 0.00 | 0.07 | 0.00 | 65 | 1048.0 |
| 20260502163057 | 45 | 233 | 0.0 | 1.7 | 0.00 | 0.11 | 0.00 | 76 | 1049.0 |
| 20260502161552 | 45 | 224 | 0.0 | 2.6 | 0.00 | 0.11 | 0.00 | 77 | 1048.8 |
| 20260502151509 | 43 | 244 | 0.0 | 0.9 | 0.00 | 0.15 | 0.00 | 78 | 1048.5 |
| 20260502071530 | 37 | 266 | 0.0 | 0.0 | 0.00 | 0.23 | 0.00 | 90 | 1046.6 |
| 20260502070047 | 37 | 266 | 0.0 | 0.9 | 0.00 | 0.23 | 0.00 | 90 | 1046.6 |
| 20260502064527 | 37 | 281 | 0.0 | 0.9 | 0.00 | 0.23 | 0.00 | 90 | 1046.5 |
| 20260502063031 | 37 | 281 | 0.0 | 0.9 | 0.00 | 0.23 | 0.00 | 90 | 1046.5 |
| 20260502061554 | 37 | 67 | 0.0 | 0.0 | 0.00 | 0.23 | 0.00 | 90 | 1046.3 |
| 20260502060056 | 37 | 66 | 0.0 | 0.0 | 0.00 | 0.23 | 0.00 | 90 | 1046.1 |
| 20260502054601 | 37 | 73 | 0.0 | 0.0 | 0.00 | 0.23 | 0.23 | 90 | 1046.2 |
| 20260502053052 | 37 | 73 | 0.0 | 0.9 | 0.00 | 0.23 | 0.23 | 90 | 1046.2 |
| 20260502051549 | 37 | 323 | 0.0 | 0.0 | 0.00 | 0.23 | 0.23 | 91 | 1046.3 |
| 20260502050049 | 37 | 352 | 0.0 | 0.0 | 0.00 | 0.23 | 0.23 | 91 | 1046.1 |
| 20260502044544 | 37 | 351 | 0.0 | 0.0 | 0.00 | 0.23 | 0.23 | 91 | 1046.1 |
| 20260502043053 | 37 | 267 | 0.0 | 0.9 | 0.00 | 0.23 | 0.23 | 91 | 1045.8 |
| 20260502041608 | 37 | 267 | 0.0 | 0.0 | 0.00 | 0.23 | 0.23 | 91 | 1045.5 |
| 20260502040050 | 37 | 267 | 0.0 | 0.0 | 0.00 | 0.23 | 0.23 | 91 | 1045.3 |
| 20260502034507 | 37 | 266 | 0.0 | 0.9 | 0.00 | 0.23 | 0.23 | 91 | 1045.0 |
| 20260502033006 | 37 | 266 | 0.0 | 0.9 | 0.00 | 0.23 | 0.23 | 91 | 1044.9 |
| 20260502031502 | 37 | 218 | 0.0 | 0.0 | 0.00 | 0.23 | 0.23 | 91 | 1044.7 |
| 20260502030119 | 37 | 218 | 0.0 | 0.9 | 0.00 | 0.23 | 0.23 | 91 | 1044.4 |
| 20260502024605 | 38 | 219 | 0.0 | 0.9 | 0.00 | 0.23 | 0.23 | 91 | 1044.1 |
| 20260502023132 | 37 | 219 | 0.0 | 0.9 | 0.00 | 0.23 | 0.23 | 90 | 1044.0 |
| 20260502021553 | 38 | 219 | 0.0 | 0.9 | 0.00 | 0.23 | 0.23 | 91 | 1043.5 |
| 20260502020050 | 38 | 219 | 0.0 | 0.9 | 0.00 | 0.23 | 0.23 | 91 | 1042.8 |
| 20260502014603 | 38 | 219 | 0.0 | 0.9 | 0.00 | 0.23 | 0.23 | 91 | 1042.6 |
| 20260502013055 | 38 | 219 | 0.0 | 0.0 | 0.00 | 0.23 | 0.23 | 91 | 1042.3 |
| 20260502011602 | 38 | 219 | 0.0 | 0.9 | 0.00 | 0.23 | 0.23 | 91 | 1042.0 |
| 20260502010043 | 38 | 219 | 0.0 | 0.9 | 0.00 | 0.23 | 0.23 | 91 | 1041.9 |
| 20260502004541 | 38 | 219 | 0.0 | 0.9 | 0.00 | 0.23 | 0.23 | 91 | 1041.6 |
| 20260502003040 | 38 | 219 | 0.0 | 1.7 | 0.00 | 0.23 | 0.23 | 91 | 1041.3 |
| 20260502001540 | 38 | 290 | 0.0 | 3.5 | 0.00 | 0.23 | 0.23 | 90 | 1040.9 |
| 20260502000050 | 38 | 221 | 0.0 | 2.6 | 0.00 | 0.23 | 0.23 | 90 | 1040.4 |
| 20260501234532 | 38 | 215 | 0.0 | 2.6 | 0.00 | 0.23 | 0.23 | 89 | 1040.4 |
| 20260501233030 | 39 | 236 | 0.0 | 2.6 | 0.00 | 0.23 | 0.23 | 89 | 1040.0 |
| 20260501231528 | 39 | 349 | 0.0 | 1.7 | 0.00 | 0.23 | 0.23 | 88 | 1040.0 |
| 20260501230056 | 39 | 360 | 0.0 | 0.9 | 0.00 | 0.23 | 0.23 | 88 | 1039.8 |
| 20260501224526 | 40 | 219 | 0.0 | 4.3 | 0.00 | 0.23 | 0.23 | 86 | 1039.4 |
| 20260501223023 | 40 | 181 | 0.0 | 5.2 | 0.00 | 0.23 | 0.23 | 86 | 1039.4 |
| 20260501221649 | 41 | 297 | 0.0 | 1.7 | 0.00 | 0.23 | 0.23 | 84 | 1039.2 |
| 20260501220047 | 42 | 264 | 0.0 | 4.3 | 0.00 | 0.23 | 0.23 | 84 | 1038.9 |
| 20260501214518 | 42 | 226 | 0.0 | 3.5 | 0.00 | 0.23 | 0.23 | 84 | 1038.8 |
| 20260501213020 | 42 | 337 | 0.0 | 3.5 | 0.00 | 0.23 | 0.23 | 84 | 1038.9 |